User: anonymous   Login
Location: Fort Wayne
(41.1310°N, 85.1290°W)
Time: 14:23:38
(UTC-05:00)
Language:

Cosmos 1000 Rocket - Orbit

View from above orbital plane
View from above orbital plane
View from above satellite
View from above satellite

Ground track
Ground track

The orbit data is extracted from the following two-line orbital elements,

1 10777U 78034B   14331.21596205  .00000057  00000-0  41915-4 0  3985
2 10777 082.9432 204.4640 0024919 292.1170 217.9097 13.77320658841953
Epoch (UTC): 27 November 2014 05:10:59
Eccentricity: 0.0024919
inclination: 82.9432°
perigee height: 955 km
apogee height: 992 km
right ascension of ascending node: 204.4640°
argument of perigee: 292.1170°
revolutions per day: 13.77320658
mean anomaly at epoch: 217.9097°
orbit number at epoch: 84195

The dashed part of the orbit path shows where the satellite is in the earth's shadow,  

DLR